Location: Unspecified
(0.0000°N, 0.0000°E)
Time: 02:50:58
(UTC+00:00)

DMSP 5D-2 F-14 - Visible Passes

Search period start: 25 July 2024 00:00
Search period end: 04 August 2024 00:00
Orbit: 832 x 843 km, 98.9° (Epoch: 24 July)

Date Brightness Start Highest point End Pass type
(mag) Time Alt. Az. Time Alt. Az. Time Alt. Az.
25 Jul 6.2 20:00:58 23° NNE 20:00:58 23° NNE 20:03:15 10° NNE visible
26 Jul 6.4 19:45:15 17° NE 19:45:15 17° NE 19:47:03 10° NNE visible
26 Jul 7.5 21:26:59 11° NW 21:26:59 11° NW 21:27:18 10° NW visible
27 Jul 6.7 19:29:32 12° NE 19:29:32 12° NE 19:30:20 10° NE visible
27 Jul 7.2 21:11:16 16° NW 21:11:16 16° NW 21:12:26 10° NW visible
28 Jul 6.8 20:55:33 21° NNW 20:55:33 21° NNW 20:57:16 10° NNW visible
29 Jul 6.5 20:39:49 24° NNW 20:39:49 24° NNW 20:41:53 10° NNW visible
30 Jul 6.3 20:24:06 25° N 20:24:06 25° N 20:26:17 10° N visible
31 Jul 6.3 20:08:23 22° NNE 20:08:23 22° NNE 20:10:28 10° N visible
01 Aug 6.4 19:52:41 18° NE 19:52:41 18° NE 19:54:24 10° NNE visible
02 Aug 6.6 19:36:58 13° NE 19:36:58 13° NE 19:37:57 10° NE visible
02 Aug 7.4 21:18:42 12° NW 21:18:42 12° NW 21:19:12 10° NW visible
03 Aug 7.1 21:03:00 16° NW 21:03:00 16° NW 21:04:09 10° NNW visible
